User: anonymous   Login
Location: Tucson
(32.2217°N, 110.9265°W)
Time: 17:54:44
(UTC-07:00)
Language:

Max Valier Satellite - Orbit

View from above orbital plane
View from above orbital plane
View from above satellite
View from above satellite

Ground track
Ground track

The orbit data is extracted from the following two-line orbital elements,

1 42778U 17036P   21340.53281034  .00002192  00000-0  92162-4 0  9999
2 42778  97.2335  23.3659 0009918 291.8423  68.1759 15.24399216247497
Epoch (UTC): 06 December 2021 12:47:14
Eccentricity: 0.0009918
inclination: 97.2335°
perigee height: 486 km
apogee height: 499 km
right ascension of ascending node: 23.3659°
argument of perigee: 291.8423°
revolutions per day: 15.24399216
mean anomaly at epoch: 68.1759°
orbit number at epoch: 24749

The dashed part of the orbit path shows where the satellite is in the earth's shadow,  

DLR